Flag for China Weather past 2 weeks in Foochow, Fujian, China

Now
86 °F

Passing clouds.


Feels Like: 97 °F
Forecast: 76 / 90 °F
Wind: 6 mph from North

Location: Fuzhou Airport

Current Time: Sep 18, 2014 at 10:12:48 AM

Latest Report: Sep 18, 2014 at 9:00 AM


Visibility: N/A

Pressure: 29.92 "Hg

Humidity: 75%

Dew point: 77 °F

Location of FoochowLocation

Historic Weather in Foochow — Graph

°F

Foochow temperature yesterday

Maximum temperature yesterday: 91 °F (at 11:00 AM)
Minimum temperature yesterday: 81 °F (at 4:00 AM)
Average temperature yesterday: 85 °F

Past Weeks' High & Low Weather Summary

 TemperatureHumidityPressure
High93 °F (Sep 3, 1:00 PM)94% (Sep 9, 5:00 AM)29.98 "Hg (Sep 9, 5:00 AM)
Low77 °F (Sep 4, 6:00 AM)56% (Sep 12, 12:00 PM)29.65 "Hg (Sep 3, 4:00 PM)
Average84 °F77%29.79 "Hg
* Reported Sep 3 9:00 AM — Sep 18 9:00 AM, Foochow, Weather by CustomWeather, © 2014

Note: Actual official high and low records may vary slightly from our data, if they occured in-between our weather recording intervals... More about our weather records

Advertising

Foochow weather history for previous 24 hours

 ConditionsComfort  
Time TempWeatherWind HumidityBarometerVisibility
9:00 AM
Sep 18
86 °FPassing clouds.6 mph75%29.92 "HgN/A
8:00 AM84 °FPassing clouds.6 mph79%29.95 "HgN/A
7:00 AM81 °FScattered clouds.3 mph84%29.92 "Hg4 mi
6:00 AM81 °FPassing clouds.3 mph84%29.92 "Hg4 mi
5:00 AM81 °FPassing clouds.1 mph89%29.92 "Hg4 mi
4:00 AM81 °FPassing clouds.3 mph84%29.92 "Hg4 mi
3:00 AM81 °FPassing clouds.1 mph89%29.92 "Hg4 mi
2:00 AM81 °FPassing clouds.1 mph89%29.95 "Hg5 mi
1:00 AM81 °FPassing clouds.3 mph89%29.95 "Hg5 mi
12:00 AM81 °FPassing clouds.3 mph89%29.95 "Hg4 mi
11:00 PM
Sep 17
81 °FPassing clouds.3 mph89%29.98 "Hg5 mi
10:00 PM82 °FPassing clouds.3 mph84%29.98 "Hg5 mi
9:00 PM82 °FPassing clouds.3 mph84%29.98 "HgN/A
8:00 PM82 °FPassing clouds.3 mph84%29.95 "HgN/A
7:00 PM82 °FClear.6 mph84%29.92 "Hg10 mi
6:00 PM84 °FPassing clouds.10 mph79%29.92 "Hg6 mi
5:00 PM86 °FClear.10 mph75%29.92 "Hg5 mi
4:00 PM88 °FPassing clouds.13 mph70%29.89 "HgN/A
3:00 PM88 °FPassing clouds.13 mph70%29.89 "HgN/A
2:00 PM90 °FSunny.10 mph67%29.92 "Hg10 mi
1:00 PM91 °FPassing clouds.13 mph59%29.92 "HgN/A
12:00 PM90 °FPartly sunny.10 mph59%29.95 "HgN/A
11:00 AM91 °FPartly sunny.13 mph59%29.95 "HgN/A
10:00 AM88 °FPartly sunny.8 mph66%29.98 "HgN/A
Weather by CustomWeather, © 2014

See weather overviewHow to use our weather pages